Miscellaneous Local Product
Issued by NWS Hastings, NE

Home | Current Version | Previous Version | Graphics & Text | Print | Product List | Glossary On
Versions: 1 2 3 4 5 6 7 8 9 10 11 12 13 14 15 16 17 18 19 20 21 22 23 24 25 26 27 28 29 30 31 32 33 34 35 36 37 38 39 40 41 42 43 44 45 46 47 48 49 50
609
AXUS43 KGID 261202
MISGRI

GID CWA HOURLY WEATHER ROUNDUP
NATIONAL WEATHER SERVICE HASTINGS NE
700 AM CDT MON SEP 26 2016

NOTE: "FAIR" INDICATES FEW OR NO CLOUDS BELOW 12,000 FEET WITH NO
SIGNIFICANT WEATHER AND/OR OBSTRUCTIONS TO VISIBILITY.

...SOUTH CENTRAL NEBRASKA...

CITY           SKY/WX    TMP DP  RH WIND       PRES   REMARKS
GRAND ISLAND   CLEAR     42  34  73 W9        30.31S
HASTINGS       CLEAR     43  34  70 W6        30.32S
KEARNEY        CLEAR     41  30  65 CALM      30.32S
ORD            CLEAR     36  32  85 CALM      30.29S
YORK           CLEAR     41  37  87 W8        30.29R
AURORA         CLEAR     41  38  89 W5        30.30R
LEXINGTON      CLEAR     36  32  84 NW3       30.34S
HOLDREGE       CLEAR     41  32  70 W6        30.33F
HEBRON         CLEAR     42  37  84 W5        30.31R

...NEBRASKA PANHANDLE...

CITY           SKY/WX    TMP DP  RH WIND       PRES   REMARKS
CHADRON        CLEAR     41  35  79 SW3       30.31F
ALLIANCE       CLOUDY    33  30  88 SW5       30.33F WCI  29
SCOTTSBLUFF    CLEAR     38  34  85 N3        30.35F
SIDNEY         CLEAR     39  34  82 W8        30.37F WCI  33

...WESTERN AND NORTH CENTRAL NEBRASKA...

CITY           SKY/WX    TMP DP  RH WIND       PRES   REMARKS
VALENTINE      CLEAR     37  31  78 SW7       30.29F WCI  32
AINSWORTH      CLEAR     41  35  79 W5        30.29S
ONEILL         CLEAR     46  34  64 W12       30.26S
BROKEN BOW     CLEAR     38  32  79 CALM      30.31F
IMPERIAL       CLOUDY    38  33  82 CALM      30.37S
NORTH PLATTE   CLEAR     36  31  82 NW3       30.35S
MCCOOK         CLEAR     37  33  85 W8        30.36S WCI  31

...EASTERN NEBRASKA...

CITY           SKY/WX    TMP DP  RH WIND       PRES   REMARKS
NORFOLK        CLEAR     41  34  76 W7        30.24S
SO SIOUX CITY  CLEAR     45  37  73 W5        30.20S
TEKAMAH        PTCLDY    46  37  71 W6        30.22R
COLUMBUS       CLEAR     43  28  56 W5        30.26S
ALBION         CLEAR     44  34  69 N5        30.27S
OMAHA EPPLEY   PTCLDY    50  38  63 CALM      30.24R
OFFUTT AFB     PTCLDY    44  40  86 W5        30.23R
MILLARD        PTCLDY    48  40  73 NW3       30.25R
LINCOLN        CLEAR     47  37  68 CALM      30.28R
NEBRASKA CITY  CLEAR     47  32  55 W9        30.25R
BEATRICE       CLEAR     42  39  88 CALM      30.28S
FALLS CITY     CLEAR     46  41  82 W6        30.25S

...NORTHERN KANSAS...

CITY           SKY/WX    TMP DP  RH WIND       PRES   REMARKS
GOODLAND       CLOUDY    40  32  73 W3        30.38S
HILL CITY      CLEAR     39  34  82 W5        30.36S HAZE
HAYS           CLEAR     41  27  56 NW6       30.34S
RUSSELL        CLEAR     42  38  85 W6        30.32F
CONCORDIA      CLEAR     44  39  82 W8        30.31R
SALINA         CLEAR     48  41  76 CALM      30.31S HAZE
TOPEKA         CLEAR     48  44  86 W3        30.27S FOG



USA.gov is the U.S. government's official web portal to all federal, state and local government web resources and services.